National Weather Service United States Department of Commerce

High Swim Risk Today

High swim risk today for Lake Huron beaches along Presque Isle county. Read More >

Observations from across/near northern Michigan

Marine Observations

Michigan Hourly Observations

 

Yesterday's high, low and precipitation reports from across northern Michigan

Northern Michigan Temperatures and Precipitation

 

Observation Text Products


000
SXUS83 KAPX 271538
OMRAPX

Marine Observations
National Weather Service Gaylord MI
1138 AM EDT Mon Jun 27 2022

WIND DATA (KTS) WAVES WATER
SITE DATE/TIME DIR SPEED GUST (FT) TEMP(F) SITE NAME
-------------------------------------------------------------

Lake Superior/St Marys River

GRMM4 271440Z 300 19 21 Grand Marais
WFPM4 271440Z 320 8 13 Whitefish Point
PTIM4 271500Z 280 9 17 Point Iroquois
CYAM 271530Z 300 13 20 SOO (Canada)
KANJ 271455Z 290 11 20 Sault Ste Marie
SWPM4 271500Z 300 12 17 54 S.W. Pier
LTRM4 271500Z 300 10 16 48 Little Rapids
RCKM4 271500Z 290 12 18 54 Rock Cut
WNEM4 271500Z 300 12 16 51 West Nebish Island

Lake Huron

DTLM4 271500Z 300 8 14 55 DeTour Village
KDRM 271515Z 290 8 15 Drummond Island
KMCD 271515Z 290 8 Mackinac Island
MACM4 271500Z 290 14 20 Mackinac City
KSLH 271515Z 260 15 21 Cheboygan Airport
CYGM4 271450Z 260 3 20 Cheboygan Marina
KPZQ 271515Z 280 15 19 Rogers City
PRIM4 271450Z 300 15 33 Presque Isle Light
KAPN 271454Z 280 10 21 Alpena Guard Base
APNM4 271520Z 330 12 17 Alpena Harbor Light
TBIM4 271500Z 300 7 15 Thunder Bay Island
SPTM4 271450Z 290 2 19 Sturgeon Point Light
KOSC 271515Z 310 15 20 Oscoda
TAWM4 271440Z 290 7 16 Tawas Point
GSLM4 271440Z 260 18 23 Gravelly Shoals

Lake Michigan

KISQ 271515Z 350 10 16 Manistique
PNLM4 271500Z 330 13 22 60 Port Inland
NABM4 271440Z 310 13 20 Naubinway
WSLM4 271500Z 290 19 56 White Shoal Light
KSJX 271515Z 300 13 19 St James
KPLN 271454Z 280 14 21 Pellston
KMGN 271515Z 290 14 21 Harbor Springs
KCVX 271515Z 290 14 19 Charlevoix
NMIM4 271428Z 330 4 7 North Manitou Island
GTLM4 271440Z 300 15 17 Grand Traverse Light
KTVC 271453Z 320 9 16 Traverse City
KFKS 271515Z 350 9 15 Frankfort
BSBM4 271440Z 330 16 18 Big Sable Point
LDTM4 271500Z 290 5 12 Ludington
KLDM 271515Z 330 11 19 Ludington Airport


000
ASUS43 KDTX 271510
RWRMI
MICHIGAN HOURLY REGIONAL WEATHER ROUNDUP
NATIONAL WEATHER SERVICE DETROIT/PONTIAC MI
1100 AM EDT MON JUN 27 2022

NOTE: "FAIR" INDICATES FEW OR NO CLOUDS BELOW 12,000 FEET WITH NO
SIGNIFICANT WEATHER AND/OR OBSTRUCTION TO VISIBILITY.

MIZ047>049-052>055-059>063-066>070-074>076-081>083-271600-
SOUTHEAST LOWER MICHIGAN

CITY SKY/WX TMP DP RH WIND PRES REMARKS
ADRIAN SUNNY 68 43 40 NW10G21 30.18R
ALMA MOSUNNY 67 40 37 W17G24 30.15S
ANN ARBOR SUNNY 68 46 45 NW10G18 30.15S
BAD AXE PTSUNNY 64 46 50 NW15G25 30.10R
CARO SUNNY 67 44 44 W12G18 30.12R
DETROIT CITY MOSUNNY 71 43 36 NW10G23 30.13S
DETROIT MOSUNNY 70 46 42 NW13G23 30.15S
FLINT SUNNY 68 44 42 NW16G30 30.13S
GROSSE ILE MOSUNNY 70 46 42 NW12G17 30.14S
HILLSDALE PTSUNNY 67 42 41 W6 30.18S
HOWELL MOSUNNY 69 41 36 W12G17 30.16R

CITY SKY/WX TMP DP RH WIND PRES REMARKS
JACKSON SUNNY 68 44 42 W8G24 30.17F
LAMBERTVILLE SUNNY 70 45 40 W9G16 30.16S
LANSING SUNNY 70 45 40 W17G26 30.17R
LAPEER SUNNY 66 42 40 W17G24 30.12F
MASON SUNNY 68 44 42 NW13G22 30.16S
MONROE SUNNY 70 47 44 W13G23 30.15S
MT. CLEMENS MOSUNNY 68 49 49 NW20G26 30.09S
PONTIAC MOSUNNY 68 42 38 NW17G26 30.13S
PORT HOPE N/A 66 32 28 NW13G23 30.08R
PORT HURON SUNNY 66 43 42 NW12G18 30.10F
TRI CITIES PTSUNNY 66 47 50 W13G25 30.13R
MIDLAND CLOUDY 66 45 46 W7G20 30.13R
TROY MOSUNNY 69 36 30 NW8G23 30.15S
SAGINAW HB MOSUNNY 67 44 43 NW15G22 30.12S
$$
MIZ043>046-050>051-056>058-064>065-071>073-077>080-271600-
SOUTHWEST LOWER MICHIGAN

CITY SKY/WX TMP DP RH WIND PRES REMARKS
BATTLE CREEK MOSUNNY 68 45 43 W13G22 30.19S
BENTON HARBOR SUNNY 69 53 56 VRB7G18 30.22R
BIG RAPIDS PTSUNNY 64 45 50 W13G22 30.16R
COLDWATER MOSUNNY 68 47 47 NW5 30.19S
FREMONT FAIR 67 42 40 NW13 30.17S
HOLLAND SUNNY 68 46 45 NW14G22 30.20S
GRAND RAPIDS MOSUNNY 68 42 38 W14G25 30.17S
IONIA FAIR 69 40 35 W15G23 30.16S
KALAMAZOO MOSUNNY 71 45 39 NW13 30.20S
LUDINGTON MOSUNNY 61 47 58 NW12 30.19R
MARSHALL SUNNY 68 46 43 NW9 30.18S
MOUNT PLEASANT MOSUNNY 65 45 48 NW10G21 30.14R
MUSKEGON MOSUNNY 68 47 46 NW13G25 30.19R
SOUTH HAVEN SUNNY 66 48 51 NW8 30.22R
$$
MIZ016>042-271600-
NORTHERN LOWER MICHIGAN

CITY SKY/WX TMP DP RH WIND PRES REMARKS
ALPENA CLOUDY 61 47 59 W12G24 30.08R
BEAVER ISLAND CLOUDY 56 46 69 NW12 30.14S
BELLAIRE CLOUDY 55 46 70 W3 30.16R
CADILLAC CLOUDY 59 44 57 NW14G23 30.15R
CHARLEVOIX CLOUDY 56 47 71 NW17 30.15R
FRANKFORT PTSUNNY 60 46 61 NW13G23 30.18S
GAYLORD LGT RAIN 54 45 71 W9G20 30.13R
HARBOR SPRINGS CLOUDY 57 46 65 W10G23 30.13R
HOUGHTON LAKE PTSUNNY 60 45 57 NW17 30.14R
MANISTEE PTSUNNY 60 47 61 NW14G21 30.19R
OSCODA CLOUDY 65 46 48 W18G24 30.08S
PELLSTON CLOUDY 57 46 66 W16G24 30.12R
ROGERS CITY CLOUDY 59 47 63 W10G21 30.09R
TRAVERSE CITY CLOUDY 60 45 57 NW10G18 30.15R
$$
MIZ007>008-015-271600-
EASTERN UPPER MICHIGAN

CITY SKY/WX TMP DP RH WIND PRES REMARKS
KINROSS CLOUDY 56 49 77 N16 30.07R
MACKINAC ISLAN CLOUDY 55 47 74 NW12G18 30.09R
NEWBERRY CLOUDY 52 45 78 NW16 30.12S
S. S. MARIE LGT RAIN 50 46 86 W13G23 30.07R FOG
$$
MIZ004>006-011>014-085-271600-
CENTRAL UPPER MICHIGAN

CITY SKY/WX TMP DP RH WIND PRES REMARKS
MANISTIQUE CLOUDY 56 45 67 NW16G25 30.15R
ESCANABA PTSUNNY 60 44 55 NW14G21 30.18R
MENOMINEE PTSUNNY 59 45 59 N10G21 30.21R
SAWYER-GWINN PTSUNNY 55 43 62 N12 30.17R
MUNISING N/A 54 46 74 NW20G29 30.17R
$$
MIZ001>003-009>011-084-271600-
WESTERN UPPER MICHIGAN

CITY SKY/WX TMP DP RH WIND PRES REMARKS
IRON MOUNTAIN PTSUNNY 59 44 57 N15 30.19S
HOUGHTON SUNNY 58 42 55 NW21G29 30.18S
COPPER HARBOR N/A 55 44 66 N17G28 30.17R
IRONWOOD SUNNY 58 42 55 NW6 30.24S
$$

ABBREVIATIONS USED IN REMARKS
TC - TEMPERATURE IN CELSIUS
WCI - WIND CHILL INDEX
HX - HEAT INDEX
VSB - VISIBILITY




000
ASUS63 KAPX 271400
RTPAPX


Eastern Upper/Northern Lower Michigan Temperature and Precip Summary
National Weather Service Gaylord MI
1000 AM EDT Mon Jun 27 2022

Yesterday`s High Temperature...12 hour Low ending 8 am EDT
24 hour Precipitation/Snowfall ending 8 am EDT
Snow Depth observed at 8 am EDT

.BR APX 0627 ES DH00/TAIRZX/DH07/TAIRZP/PPDRZZ/SFDRZZ/SDIRZZ
:..................................................................
: MAX MIN 24 HR 24 HR SNOW
:ID LOCATION TEMP TEMP PRECIP SNOW DEPTH
:..................................................................
ANJ : Sault Ste Marie : 70 / 48 / 0.00 / 0.0 / 0.0
APN : Alpena : 81 / 55 / 0.00 / 0.0 / 0.0
HTL : Houghton Lake : 79 / 53 / 0.00 / 0.0 / 0.0
PLN : Pellston : 73 / 56 / 0.00 / /
TVC : Traverse City : 78 / 56 / 0.00 / /
GLR : Gaylord : 74 / 53 / 0.00 / /
.END

Cooperative Observations
Temperature/Precipitation/Snowfall values are for 24 hour period
ending at observation time. Snow Depth at obs time.

...................................................................
OBS MAX MIN SNOW SNOW
ID LOCATION TIME TEMP TEMP PCPN FALL DEPTH
...................................................................
ATLM4: Atlanta 1SW :DH0700/ 77 / 55 / 0.00 / 0.0 / 0.0
BEUM4: Beulah 7SSW :DH0800/ 75 / 55 / 0.00 / M / M
CDLM4: Cadillac 9&10 News :DH0700/ 86 / 64 / 0.00 / 0.0 / 0.0
CHRM4: Charlevoix :DH0800/ 91 / 55 / 0.00 / 0.0 / M
DTVM4: Detour Village :DH0800/ 73 / 51 / 0.06 / 0.0 / 0.0
EJDM4: East Jordan :DH0800/ 74 / 54 / 0.00 / 0.0 / 0.0
EJNM4: East Jordan 2NW :DH0800/ 73 / 54 / 0.00 / 0.0 / 0.0
GAYM4: Gaylord :DH0800/ 71 / 50 / 0.00 / 0.0 / 0.0
APXM4: Gaylord 9SSW (NWS) :DH0800/ M / M / 0.00 / 0.0 / 0.0
GLNM4: Glennie 2SE :DH0730/ 81 / 52 / 0.00 / 0.0 / 0.0
LUPM4: Lupton 1S :DH0800/ 82 / 50 / 0.00 / 0.0 / 0.0
MYOM4: Mio :DH0830/ 81 / 50 / 0.00 / 0.0 / 0.0
OMSM4: Old Mission 3SSW :DH0830/ 89 / 55 / M / M / M
SSMM4: Sault Ste Marie :DH0900/ 70 / 47 / 0.02 / 0.0 / 0.0
STAM4: Standish 4NE :DH0800/ 84 / 54 / 0.00 / M / M
TCEM4: Traverse City 4.7ESE :DH0600/ M / M / 0.00 / 0.0 / 0.0
NWFM4: Traverse City 8NNW :DH0800/ 73 / 55 / 0.00 / 0.0 / 0.0
WBRM4: West Branch 3SE :DH0800/ 89 / 65 / 0.00 / 0.0 / 0.0

These data are preliminary and have not undergone final quality
control by the National Centers for Environmental Information.
Therefore...these data are subject to revision. Final
and certified climate data can be accessed at www.ncdc.noaa.gov.

&&

The following are supplemental temperature and precipitation data.
This includes data which are received from non-National Weather
Service maintained observing systems...as well as reports from
public weather spotters. Data is only partially quality controlled
and is not suitable for official climatological records.

.BR APX 0627 ES DH00/TAIRZX/DH07/TAIRZP
:
:Automated Temperature Data--Yesterday High/12 hr Low ending 8 am EDT
:..................................................................
: MAX MIN
:ID LOCATION TEMP TEMP
:..................................................................
:
ERY : Newberry : 73 / 51
CIU : Kinross : 70 / 51
MCD : Mackinac Island : 67 / 52
DRM : Drummond Island : 71 / 51
SJX : Beaver Island : 70 / 54
SLH : Cheboygan : 73 / 54
PZQ : Rogers City : 75 / 52
CVX : Charlevoix : 72 / 53
MGN : Harbor Springs : 70 / 54
ACB : Bellaire : 72 / 55
FKS : Frankfort : 70 / 55
MBL : Manistee : 73 / 56
CAD : Cadillac : 75 / 51
Y31 : West Branch : 83 / 54
OSC : Oscoda : 86 / 53
LDM : Ludington : 72 / 56
RQB : Big Rapids : 78 / 52
MOP : Mount Pleasant : 81 / 51
IKW : Midland : 85 / 55
.END

U.S. Forest Service Remote Automated Weather Stations (RAWS)
Data is only partially quality controlled
Yesterday`s High/12 hour Low Temperature ending 8 am EDT
Maximum Relative Humidity over past 12 hours
12/24 hour Precipitation ending 8 am EDT
...................................................................
MAX MIN MAX 12 HR 24 HR
ID LOCATION TEMP TEMP RH PRECIP PRECIP
...................................................................
AGRM4: Alger RAWS : 83 / 49 / 88 / 0.00 / 0.00
ATAM4: Atlanta RAWS : 76 / 54 / 73 / 0.00 / 0.00
BCYM4: Barton City RAWS : 84 / 53 / 74 / 0.00 / 0.00
GYGM4: Grayling RAWS : 77 / 47 / 92 / 0.00 / 0.00
INDM4: Indian River RAWS : 77 / 53 / 89 / 0.00 / 0.00
MMOM4: Mio RAWS : 79 / 50 / 83 / 0.00 / 0.00
NMIM4: N Manitou Island : 71 / 54 / 70 / 0.00 / 0.00
RACM4: Raco RAWS : 72 / 51 / 88 / 0.00 / 0.00
REXM4: Rexton RAWS : 73 / 51 / 86 / 0.00 / 0.00
RSCM4: Roscommon RAWS : 79 / 52 / M / 0.00 / 0.00
RYDM4: Rudyard RAWS : 73 / 51 / 90 / 0.00 / 0.00
SBDM4: The Bear RAWS : 72 / 55 / 80 / 0.00 / 0.00
SCKM4: Silver Creek RAWS : 89 / 52 / 77 / 0.00 / 0.00
WLLM4: Wellston RAWS : 77 / 48 / 90 / 0.00 / 0.00

The following are precipitation reports received by the National
Weather Service in Gaylord...valid for the time period ending
around 8 am EDT. All reports have been recorded in inches.

Spotter reports from Eastern Upper and Northern Lower Michigan:

WATER TIME SNOW
LOCATION RAIN SNOW EQUIV PERIOD DEPTH
No Reports Received

CoCoRaHS Precipitation Reports
Values are for the previous 24 hours ending around 8 am EDT.
All reports have been recorded in inches.

SNOW SNOW WATER
STATION LOCATION PCPN FALL DEPTH EQUIV
MIMC03 : CEDARVILLE 3.2 ESE * : 0.06 / MM / MM / MM
MICP14 : SAULT STE. MARIE 2.2 E * : 0.02 / 0.0 / 0.0 / MM
MIOT17 : GAYLORD 4.1 S * : T / 0.0 / 0.0 / MM
MICB07 : MACKINAW CITY 1.1 ENE * : T / MM / MM / MM
MIMC06 : ENGADINE 4.0 NE * : T / 0.0 / MM / MM
MICX07 : EAST JORDAN 2.1 NNW * : 0.00 / 0.0 / 0.0 / 0.00
MICF09 : GRAYLING 15.8 NE * : 0.00 / 0.0 / 0.0 / MM
MIGT25 : TRAVERSE CITY 4.7 ESE * : 0.00 / 0.0 / 0.0 / MM
MIIC03 : EAST TAWAS 0.8 WSW * : 0.00 / 0.0 / 0.0 / 0.00
MIOT04 : GAYLORD 1.7 WNW * : 0.00 / 0.0 / 0.0 / MM
MIAP02 : OSSINEKE 1.0 NNE * : 0.00 / 0.0 / MM / MM
MIAT06 : MANCELONA 0.5 ESE * : 0.00 / 0.0 / MM / MM
MIAT08 : CHARLEVOIX 9.8 SW * : 0.00 / 0.0 / MM / MM
MIAR03 : TAWAS CITY 9.3 SSW * : 0.00 / 0.0 / MM / MM
MIEM05 : HARBOR SPRINGS 0.7 ENE * : 0.00 / 0.0 / MM / MM
MIEM08 : PETOSKEY 1.7 SSW * : 0.00 / 0.0 / MM / MM
MIEM13 : HARBOR SPRINGS 4.8 NW * : 0.00 / 0.0 / MM / MM
MIGT21 : KINGSLEY 2.7 ENE * : 0.00 / 0.0 / MM / MM
MIGT29 : TRAVERSE CITY 1.4 E * : 0.00 / 0.0 / MM / MM
MILL01 : NORTHPORT 5.0 SSW * : 0.00 / 0.0 / MM / MM
MIMC05 : ST. IGNACE 0.6 WSW * : 0.00 / 0.0 / MM / MM
MIMN06 : WELLSTON 3.9 WNW * : 0.00 / 0.0 / MM / MM
MIOD03 : LUZERNE 2.4 NE * : 0.00 / 0.0 / MM / MM
MIPI01 : ROGERS CITY 0.2 WSW * : 0.00 / 0.0 / MM / MM
MIPI03 : HURON BEACH 1.9 NW * : 0.00 / 0.0 / MM / MM
$$